Regional Weather Roundup
Issued by NWS

Home | Current Version | Previous Version | Text Only | Print | Product List | Glossary On
Versions: 1 2 3 4 5 6 7 8 9 10 11 12 13 14 15 16 17 18 19 20 21 22 23 24 25 26 27 28 29 30 31 32 33 34 35 36 37 38 39 40 41 42 43 44 45 46 47 48 49 50
000
ASUS46 KLOX 051013
RWRCA

SOUTHERN CALIFORNIA WEATHER ROUNDUP
NATIONAL WEATHER SERVICE OXNARD CALIFORNIA
300 AM PDT SAT SEP 05 2015

NOTE: "FAIR" INDICATES FEW OR NO CLOUDS BELOW 12,000 FEET WITH NO
SIGNIFICANT WEATHER AND/OR OBSTRUCTIONS TO VISIBILITY.

  -  STATIONS PRECEEDED BY AN ASTERISK (*) ARE NOT NWS OR FAA
     STATIONS AND ARE NOT SUBJECT TO NWS AND FAA QUALITY CONTROL.

CAZ041-042-087-051100-
LA AND ORANGE COUNTY COASTAL AREAS


CITY           SKY/WX    TMP DP  RH WIND       PRES   REMARKS
L.A. DOWNTOWN  FAIR      67  58  72 CALM      29.87S
L.A. AIRPORT   FAIR      65  59  81 E5        29.88R
LONG BEACH     FAIR      66  59  78 E5        29.87S

CITY           SKY/WX    TMP DP  RH WIND       PRES   REMARKS
AVALON           N/A     61 N/A N/A MISG        N/A
FULLERTON      FAIR      66  59  78 NE3       29.87S
*GETTY CENTER    N/A     61  57  88 E3          N/A
HAWTHORNE      FAIR      68  60  75 E5        29.87S
*LOS ALAMITOS  FAIR      65  60  84 SE1       29.87S
*REDONDO BEACH   N/A     63  58  86 CALM      29.88R
SANTA ANA      FAIR      65  59  81 SE5       29.87S
STA MONICA APT FAIR      65  58  78 CALM      29.88R
*UCLA            N/A     63  55  77 N2        29.85S

$$

CAZ547-548-048-051100-
LA COUNTY VALLEYS AND INLAND EMPIRE


CITY           SKY/WX    TMP DP  RH WIND       PRES   REMARKS
BURBANK        FAIR      67  55  65 E3        29.88S
VAN NUYS       FAIR      64  56  75 CALM      29.88S

CITY           SKY/WX    TMP DP  RH WIND       PRES   REMARKS
CORONA AIRPORT FAIR      55  53  93 CALM      29.89S
*CHATSWORTH      N/A     62  54  76 CALM      29.89R
CHINO          FAIR      62  57  83 NE3       29.90S
*CLAREMONT       N/A     55  52  90 CALM        N/A
MARCH AFB      FAIR      57  53  85 CALM      29.90S
*NORTHRIDGE      N/A     61  54  77 CALM        N/A
ONTARIO        FAIR      62  56  80 CALM      29.89S
*PASADENA        N/A     64  59  82 CALM        N/A
RIVERSIDE      FAIR      63  56  78 CALM      29.89S
SAN BERNARDINO NOT AVBL
*SAN GABRIEL     N/A     65  60  81 SW2       29.95R
*WHITEMAN AP   NOT AVBL
*WOODLAND HILL   N/A     59  54  82 SE1         N/A

$$

CAZ054-055-051100-
LA AND SAN BERNARDINO COUNTY MOUNTAINS


CITY           SKY/WX    TMP DP  RH WIND       PRES   REMARKS
*BIG BEAR AIRP FAIR      41  23  48 SW3       30.10R
*BIG PINES       N/A     52  -1  11 CALM        N/A
*CHILAO          N/A     56  23  28 E13         N/A
SANDBERG       FAIR      55  39  54 NW10      29.99F
*WARM SPRINGS    N/A     56  48  74 SW8         N/A

$$

CAZ028-029-059-060-099-051100-
ANTELOPE VALLEY AND SURROUNDING AREAS


CITY           SKY/WX    TMP DP  RH WIND       PRES   REMARKS
LANCASTER      FAIR      63  46  54 SW7       29.90R
PALMDALE       FAIR      62  47  57 SW14      29.91S
*POPPY PARK      N/A     61  40  45 SW8         N/A

CITY           SKY/WX    TMP DP  RH WIND       PRES   REMARKS
29 PALMS       FAIR      68  30  24 NW7       29.92R
BARSTOW/DAGGET FAIR      69  39  33 W8        29.87R
BISHOP         FAIR      48  30  49 N5        29.89R
CHINA LAKE     FAIR      67  37  33 S10       29.82R
EDWARDS AFB    FAIR      60  38  43 SW7       29.87S
NEEDLES        FAIR      86  54  33 S17G24    29.78R
VICTORVILLE    FAIR      57  46  67 W6        29.92S

$$

CAZ039-040-051100-
VENTURA AND SANTA BARBARA COUNTY COAST


CITY           SKY/WX    TMP DP  RH WIND       PRES   REMARKS
CAMARILLO      FAIR      63  55  75 NE3       29.87S
NWS OXNARD       N/A     60  55  82 CALM      29.87R
OXNARD AIRPORT FAIR      62  55  77 NE6       29.87S
*POINT MUGU    FAIR      63  57  81 N5        29.88R
SBA APT/GOLETA FAIR      60  52  74 CALM      29.86S
*SANTA BARBARA   N/A     65  52  63 CALM      29.94S
*VENTURA         N/A     60  54  79 CALM      29.47S

$$

CAZ044-045-051100-
VENTURA COUNTY VALLEYS


CITY           SKY/WX    TMP DP  RH WIND       PRES   REMARKS
*SIMI VALLEY     N/A     57  53  87 CALM      29.84R
*OJAI            N/A     53  50  90 CALM      29.83R
*FILLMORE        N/A     57  52  82 W14       29.78S

$$

CAZ053-051100-
VENTURA COUNTY MOUNTAINS


CITY           SKY/WX    TMP DP  RH WIND       PRES   REMARKS
*LOCKWOOD VLY    N/A     41  39  93 MISG        N/A
*ROSE VALLEY     N/A     43  45 100 MISG        N/A

$$

CAZ034-035-036-051100-
CENTRAL COAST AND SANTA YNEZ VALLEY


CITY           SKY/WX    TMP DP  RH WIND       PRES   REMARKS
SAN LUIS OBISP FAIR      52  48  86 CALM      29.91R
SANTA MARIA    FAIR      55  51  86 E3        29.90F

CITY           SKY/WX    TMP DP  RH WIND       PRES   REMARKS
*CAL POLY SLO    N/A     50  50 100 CALM        N/A
*LOMPOC        FAIR      52  45  76 CALM      29.91S
*PISMO BEACH     N/A     53  50  89 NE1       29.91R
*SANTA YNEZ    FAIR      52  46  82 CALM      29.90F

$$

CAZ037-038-051-051100-
SAN LUIS OBISPO COUNTY INTERIOR AND CUYAMA VALLEY


CITY           SKY/WX    TMP DP  RH WIND       PRES   REMARKS
*CUYAMA          N/A     53  44  71 SE1       29.86S
PASO ROBLES    FAIR      54  48  80 NW6       29.92S

$$

CAZ032-033-061-051100-
SOUTHERN DESERTS


CITY           SKY/WX    TMP DP  RH WIND       PRES   REMARKS
BLYTHE         FAIR      83  71  67 S12       29.78R
IMPERIAL       FAIR      79  70  74 N3        29.73S
PALM SPRINGS   FAIR      72  52  49 SW5       29.79S
THERMAL        FAIR      75  49  39 CALM      29.73S

$$

ELSEWHERE ACROSS THE WESTERN UNITED STATES AND MEXICO


CITY           SKY/WX    TMP DP  RH WIND       PRES   REMARKS
DEATH VALLEY,    N/A     84  43  23 S6          N/A
DENVER, CO     MOCLDY    67  48  50 SW10      29.95S
GRAND CANYON,  FAIR      55  51  86 SW5       30.17R
HONOLULU, HI   PTCLDY    81  72  74 CALM      29.86F
KAHULUI, MAUI  CLEAR     79  70  73 NE5       29.88F
LAKE TAHOE, CA FAIR      35  14  42 CALM      30.02S
LAS VEGAS, NV  FAIR      77  33  20 S3        29.78R
MAMMOTH LAKES, FAIR      41  28  60 CALM      30.05S
MEXICO CITY, M MOCLDY    57  54  88 CALM      30.30S
PHOENIX, AZ    FAIR      82  66  58 SE6       29.83S
PORTLAND, OR   CLOUDY    55  48  77 W3        30.05R
RENO, NV       FAIR      50  24  36 N7        30.00R
SALT LAKE CITY MOCLDY    74  42  31 S20G28    29.82R
SAN DIEGO, CA  CLOUDY    70  58  65 W6        29.90R
SAN FRANCISCO, FAIR      55  49  80 W3        29.91S
SAN JOSE, CA   FAIR      56  47  71 SE7       29.91F
SEATTLE, WA    FAIR      51  46  83 SE5       30.03S
TIJUANA, MEX   MOCLDY    66  55  68 CALM      29.91R

$$

STATION/POSITION TIME  TEMP    WIND        PRES    VSBY  WAVE
                       AIR SEA DIR/SP/G                  HT/PER
                 (UTC) (F)     (DEG/KT/KT) (MB)    (MI)  (FT/S)
POINT ARGUELLO B NOT AVBL
WEST SANTA BARBA 0950   62 65  330/ 21/ 25 1010.8S         8/ 9
POINT CONCEPTION NOT AVBL
EAST SANTA BARBA 0900   66 70  260/  8/ 10 1011.6R
SANTA MONICA BAY 0950   68 71  330/ 10/ 12 1011.3S         4/19


USA.gov is the U.S. government's official web portal to all federal, state and local government web resources and services.